This is the latest recevied weather packets stored in our database for station/object KC9DRE. If no packets are shown the sender has not sent any weather packets the latest 10 day(s).
| Time | Temp. | Humidity | Pressure | Rain* | Wind** | Luminosity | Snow |
|---|---|---|---|---|---|---|---|
| 1778184856 | 18.89° C | 35% | 1015 hPa | 0 mm | - | 663 W/m² | - |
| 1778184553 | 18.33° C | 34% | 1015.3 hPa | 0 mm | - | 678 W/m² | - |
| 1778184248 | 18.33° C | 33% | 1014.9 hPa | 0 mm | - | 693 W/m² | - |
| 1778183944 | 18.33° C | 39% | 1015.1 hPa | 0 mm | - | 703 W/m² | - |
| 1778183642 | 17.78° C | 37% | 1015.1 hPa | 0 mm | - | 718 W/m² | - |
| 1778183339 | 17.78° C | 40% | 1015.1 hPa | 0 mm | - | 735 W/m² | - |
| 1778183035 | 17.22° C | 36% | 1015.3 hPa | 0 mm | - | 763 W/m² | - |
| 1778182732 | 17.78° C | 34% | 1015.3 hPa | 0 mm | - | 801 W/m² | - |
| 1778182429 | 18.33° C | 38% | 1015.4 hPa | 0 mm | - | 801 W/m² | - |
| 1778182125 | 17.78° C | 37% | 1015.3 hPa | 0 mm | - | 777 W/m² | - |
| 1778181822 | 17.22° C | 39% | 1015.2 hPa | 0 mm | - | 786 W/m² | - |
| 1778181518 | 17.22° C | 38% | 1015.3 hPa | 0 mm | - | 794 W/m² | - |
| 1778181214 | 17.22° C | 35% | 1015.4 hPa | 0 mm | - | 802 W/m² | - |
| 1778180911 | 17.22° C | 35% | 1015.4 hPa | 0 mm | - | 819 W/m² | - |
| 1778180610 | 17.22° C | 35% | 1015.4 hPa | 0 mm | - | 826 W/m² | - |
| 1778180309 | 16.67° C | 35% | 1015.4 hPa | 0 mm | - | 845 W/m² | - |
| 1778180005 | 16.67° C | 36% | 1015.5 hPa | 0 mm | - | 841 W/m² | - |
| 1778179702 | 17.22° C | 37% | 1015.5 hPa | 0 mm | - | 432 W/m² | - |
| 1778179400 | 17.78° C | 43% | 1015.4 hPa | 0 mm | - | 846 W/m² | - |
| 1778179096 | 16.67° C | 39% | 1015.5 hPa | 0 mm | - | 846 W/m² | - |
| 1778178794 | 16.67° C | 37% | 1015.5 hPa | 0 mm | - | 850 W/m² | - |
| 1778178491 | 16.67° C | 39% | 1015.4 hPa | 0 mm | - | 852 W/m² | - |
| 1778178186 | 16.67° C | 36% | 1015.5 hPa | 0 mm | - | 860 W/m² | - |
| 1778177883 | 16.67° C | 39% | 1015.4 hPa | 0 mm | - | 867 W/m² | - |
| 1778177579 | 16.67° C | 45% | 1015.5 hPa | 0 mm | - | 869 W/m² | - |
* Rain latest hour (hover to see other rain measurements)
** Current wind speed in m/s (hover to see current wind gust speed)